Preview of NWS' New Version of Forecast
This preview is not operational and should not be used for support decisions.
Latest weather observations around

Fryeburg, Eastern Slopes Regional Airport (KIZG)

Using English Units (Switch to International System of Units)
Date/ Time (EST) Wind (mph) Vis. (mi) Weather Sky Cond. Temp (°F) Rel. Humidity Wind Chill (°F) Heat Index (°F) Pressure Precip. (in)
Air Dwpt 6 hour Altimeter (inHg) Sea level (inHg) 1 hr 3 hr 6 hr
Max Min
Feb 25 18:18 Calm 5 Fog/Mist BKN005 OVC019 28 28     100%     30.08   0    
Feb 25 18:01 Calm 3 Fog/Mist FEW007 BKN017 OVC023 28 28     100%     30.08   0    
Feb 25 17:54 Calm 2 Light Snow and Fog/Mist SCT017 BKN023 OVC031 28 28     100%     30.08 30.1 0    
Feb 25 17:29 Calm 2 Light Snow and Fog/Mist OVC020 28 28     100%     30.08   0    
Feb 25 17:18 Calm 1 Light Snow and Fog/Mist VV016 28 28     100%     30.1   0    
Feb 25 16:54 Calm 0.75 Light Snow and Fog/Mist VV012 28 28     100%     30.11 30.14 0    
Feb 25 16:47 Calm 1 Light Snow and Fog/Mist VV014 28 28     100%     30.12   0    
Feb 25 16:42 Calm 0.75 Light Snow and Fog/Mist BKN015 OVC020 28 28     100%     30.13   0    
Feb 25 16:02 NW 3 1.25 Light Snow and Fog/Mist OVC018 28 28     100% 24   30.11   0    
Feb 25 15:54 Calm 1 Light Snow and Fog/Mist BKN013 OVC020 28 28     100%     30.1 30.12 0 0  
Feb 25 15:52 Calm 0.75 Light Snow and Fog/Mist BKN013 OVC020 27 27     100%     30.11   0    
Feb 25 15:42 Calm 0.75 Light Snow and Fog/Mist FEW005 OVC015 27 27     100%     30.09   0    
Feb 25 15:26 NW 3 1 Light Snow and Fog/Mist FEW005 OVC017 27 27     100% 23   30.11   0    
Feb 25 15:14 Calm 1 Light Snow and Fog/Mist VV017 27 27     100%     30.11   0    
Feb 25 14:54 Calm 0.75 Light Snow and Fog/Mist VV013 27 27     100%     30.13 30.15 0    
Feb 25 14:24 N 3 0.5 Light Snow and Fog FEW006 OVC011 27 27     100% 23   30.15   0    
Feb 25 13:54 N 5 0.5 Snow and Fog VV010 27 26     96% 21   30.16 30.19 0    
Feb 25 13:33 N 5 0.5 Snow and Fog VV007 27 26     96% 21   30.17   0    
Feb 25 12:54 N 6 0.25 Snow and Fog VV007 27 26     96% 20   30.18 30.2 0   0
Feb 25 12:37 NNE 5 0.25 Snow and Fog VV009 27 26     96% 21   30.19   0    
Feb 25 12:32 N 5 0.5 Snow and Fog FEW005 OVC011 26 26     100% 20   30.2   0    
Feb 25 11:54 NNE 6 0.5 Snow and Fog BKN012 OVC022 27 26     96% 20   30.21 30.24 0    
Feb 25 11:18 NNE 3 0.5 Snow and Fog FEW007 OVC011 27 26     96% 23   30.24   0    
Feb 25 10:57 N 5 0.25 Snow and Fog VV009 26 26     100% 20   30.26   0    
Feb 25 10:54 NE 5 0.5 Snow and Fog VV010 26 26     100% 20   30.27 30.29 0    
Feb 25 10:37 NE 7 0.5 Snow and Fog VV009 26 26     100% 18   30.28   0    
Feb 25 10:03 NE 6 0.25 Heavy Snow and Fog VV008 26 26     100% 19   30.29   0    
Feb 25 09:54 Calm 0.25 Snow and Fog VV010 27 25     92%     30.29 30.31 0 0  
Feb 25 09:43 Calm 0.5 Snow and Fog BKN013 OVC025 27 25     92%     30.29   0    
Feb 25 09:31 E 6 0.75 Light Snow BKN015 OVC025 28 23     81% 22   30.29   0    
Feb 25 09:25 Calm 1.75 Light Snow SCT017 OVC025 29 21     72%     30.29   0    
Feb 25 08:54 ENE 7 10 Cloudy OVC025 29 20     69% 22   30.29 30.31      
Feb 25 08:25 ENE 5 10 Cloudy OVC029 29 20     69% 24   30.31        
Feb 25 07:54 E 3 10 Mostly Cloudy SCT033 BKN120 29 20     69% 25   30.32 30.35      
Feb 25 06:54 Calm 10 Clear CLR 29 21     72%     30.33 30.35      
Feb 25 05:54 Calm 10 Clear CLR 26 24     92%     30.34 30.36      
Feb 25 04:54 Calm 10 Clear CLR 24 24     100%     30.34 30.35      
Feb 25 03:54 Calm 10 Clear CLR 23 23     100%     30.33 30.35      
Feb 25 02:54 Calm 10 Clear CLR 23 22     96%     30.34 30.36      
Feb 25 01:54 Calm 10 Clear CLR 24 23     96%     30.34 30.35      
Feb 25 00:54 Calm 10 Clear CLR 24 24     100%     30.32 30.33      
Feb 24 23:54 Calm 10 Clear CLR 25 24     96%     30.3 30.32      
Feb 24 22:54 SSW 3 10 Clear CLR 28 25     88% 24   30.28 30.29      
Feb 24 21:54 Calm 10 Clear CLR 27 25     92%     30.27 30.29      
Feb 24 20:54 SW 3 10 Clear CLR 28 26     92% 24   30.25 30.26      
Feb 24 19:54 NW 6 10 Clear CLR 33 25     72% 28   30.21 30.23      
Feb 24 18:54 Calm 10 Clear CLR 32 26     78%     30.2 30.22      
Feb 24 17:54 WNW 6 10 Clear CLR 38 26     62% 33   30.19 30.2      
Feb 24 16:54 WNW 5 10 Clear CLR 40 26     57% 37   30.15 30.17      
Feb 24 15:54   10 Clear CLR 41 27     57%     30.13 30.14      
Feb 24 14:54 WNW 9 10 Clear CLR 43 28     55% 38   30.11 30.12      
Feb 24 13:54 WNW 11 10 Clear CLR 47 28     48% 42   30.09 30.1      
Feb 24 12:54 NW 11 10 Clear CLR 46 30     53% 41   30.07 30.08      
Feb 24 11:54 WNW 16 10 Clear CLR 46 29     51% 39   30.06 30.08      
Feb 24 10:54 WNW 10 10 Cloudy OVC050 45 29     53% 40   30.05 30.06      
Feb 24 09:54 NW 11 10 Mostly Cloudy BKN050 44 28     53% 38   30.06 30.07      
Feb 24 08:54 NW 8 10 Clear CLR 45 29     53% 41   30.03 30.04      
Feb 24 07:54 NW 11 10 Clear CLR 44 32     62% 38   30 30.01      
Feb 24 06:54   10 Clear CLR 42 33     70%     29.95 29.97      
Feb 24 05:54 Calm 10 Clear CLR 32 32     100%     29.92 29.94      
Feb 24 04:54 ESE 5 10 Clear CLR 30 30     100% 25   29.91 29.93      
Feb 24 03:54 Calm 10 Mostly Clear FEW001 30 30     100%     29.91 29.93      
Feb 24 03:35 Calm 10 Mostly Clear FEW001 31 31     100%     29.91        
Feb 24 02:54 Calm 8 Partly Cloudy SCT038 31 31     100%     29.92 29.93      
Feb 24 01:54 Calm 10 Cloudy OVC037 32 32     100%     29.94 29.95      
Feb 24 01:14 Calm 10 Mostly Cloudy SCT011 BKN032 33 33     100%     29.95        
Feb 24 00:54 Calm 10 Mostly Cloudy BKN011 33 33     100%     29.95 29.96     0
Feb 24 00:47 Calm 10 Mostly Cloudy BKN011 33 33     100%     29.95        
Feb 24 00:21 Calm 10 Mostly Cloudy FEW010 SCT029 BKN041 33 33     100%     29.97        
Feb 23 23:54 S 8 10 Cloudy FEW010 BKN029 OVC034 33 33     100% 26   29.98 30      
Feb 23 23:45 S 7 10 Cloudy SCT012 BKN029 OVC033 33 33     100% 27   29.99        
Feb 23 22:54 Calm 10 Cloudy OVC010 33 33     100%     30.04 30.05      
Feb 23 21:54 SSW 3 10 Cloudy OVC010 33 33     100% 30   30.1 30.11 0 0  
Feb 23 21:01 SSW 7 10 Cloudy BKN014 OVC019 33 33     100% 27   30.14   0    
Feb 23 20:54 SSW 6 9 Light Freezing Rain BKN015 OVC020 33 33     100% 28   30.16 30.17 0    
Feb 23 19:54 Calm 9 Light Freezing Rain OVC016 32 32     100%     30.2 30.22 0    
Feb 23 19:33 Calm 8 Light Freezing Rain OVC016 32 32     100%     30.22   0    
Feb 23 19:25 Calm 8 Light Freezing Rain BKN014 OVC020 32 32     100%     30.24   0    
Feb 23 18:54 Calm 6 Light Freezing Rain and Fog/Mist OVC018 32 32     100%     30.26 30.29 0   0
Feb 23 17:54 Calm 10 Unknown Precipitation SCT019 BKN028 OVC033 31 31     100%     30.3 30.32 0    
Feb 23 17:49 Calm 10 Unknown Precipitation SCT019 BKN026 OVC031 30 30     100%     30.3   0    
Feb 23 16:54 Calm 5 Unknown Precipitation and Fog/Mist FEW032 BKN044 OVC070 31 31     100%     30.35 30.38 0    
Feb 23 16:23 S 6 6 Light Freezing Rain and Fog/Mist OVC047 32 31     96% 26   30.38   0    
Feb 23 16:10 S 3 4 Freezing Rain and Fog/Mist OVC045 32 30     92% 29   30.4   0    
Feb 23 16:01 S 3 10 Unknown Precipitation BKN045 OVC055 32 30     92% 29   30.41   0    
Feb 23 15:54 S 5 10 Light Freezing Rain OVC050 32 29     88% 27   30.41 30.44 0 0  
Feb 23 15:40 5 9 Light Freezing Rain OVC055 32 28     85% 27   30.41   0    
Feb 23 14:54 SSE 7 10 Cloudy BKN034 OVC070 34 23     64% 28   30.45 30.47      
Feb 23 13:54 S 7 10 Clear CLR 34 20     56% 28   30.49 30.51      
Feb 23 12:54 S 9 10 Cloudy BKN095 OVC120 34 17     50% 27   30.54 30.56      
Feb 23 11:54 SSE 3 10 Partly Cloudy SCT110 34 14     43% 31   30.59 30.61      
Feb 23 10:54 ESE 7 10 Clear CLR 33 12     41% 27   30.63 30.65      
Feb 23 09:54 E 6 10 Clear CLR 30 12     47% 24   30.66 30.68      
Feb 23 08:54 E 3 10 Clear CLR 28 14     55% 24   30.69 30.71      
Feb 23 07:54 Calm 10 Clear CLR 23 21     92%     30.7 30.72      
Feb 23 06:54 W 3 10 Clear CLR 15 15     100% 10   30.71 30.73      
Feb 23 05:54 Calm 10 Clear CLR 15 15     100%     30.7 30.72      
Feb 23 04:54 Calm 10 Clear CLR 16 16     100%     30.71 30.73      
Feb 23 03:54 Calm 10 Clear CLR 18 17     96%     30.7 30.72      
Feb 23 02:54 W 3 10 Clear CLR 18 18     100% 13   30.69 30.72      
Feb 23 01:54 Calm 10 Clear CLR 19 19     100%     30.69 30.72      
Feb 23 00:54 Calm 10 Clear CLR 21 18     88%     30.69 30.71      
Feb 22 23:54 Calm 10 Clear CLR 22 19     88%     30.67 30.69      
Feb 22 22:54 Calm 10 Cloudy OVC090 26 20     77%     30.66 30.68      
Feb 22 21:54 Calm 10 Mostly Cloudy BKN080 25 18     74%     30.68 30.71      
Feb 22 20:54 Calm 10 Mostly Cloudy BKN110 26 18     71%     30.67 30.69      
Feb 22 19:54 W 3 10 Clear CLR 26 18     71% 22   30.65 30.67      
Feb 22 18:54 Calm 10 Clear CLR 33 14     45%     30.64 30.66      
Jun 11 23:54 SW 6 10 Clear CLR 74 60     62%   74 29.89 29.88      
Jun 10 04:54 Calm 10 Clear CLR 54 49     83%     29.86 29.86      
Jun 10 01:54 WSW 6 10 Clear CLR 62 50     65%     29.81 29.8      
Jun 09 15:54 SW 7 10 Clear CLR 68 58     70%     29.58 29.58      
Jun 07 22:54 Calm 10 Clear CLR 53 52     96%     29.98 29.98      
Jun 05 22:28 6 10 Cloudy FEW009 BKN022 OVC027 51 49     92%     29.99   0